NOAA 16 DEB

Satellite information

Favourite Embed

Satellite Type and Status

DEBRISIN ORBIT

Key statistics

Satellite NOAA 16 DEB at a glance.

Uptime

9158

Days in orbit

Revolutions

≈ 14.3

Per day

Orbit

SSO

Sun Synchronous Orbit

Inclination

98.7

Latest

Satellite identification and parameters

Extended collection of information and parameters for NOAA 16 DEB.

Object identification

Identified? True

Debris? True

Object name: NOAA 16 DEB

International designator: 2000-055DA

Object number (NORAD): 41197

Object ID (CCSDS): 41197

Country: UNITED STATES OF AMERICA (US)

Current information (Y/N): Y

RCS size: SMALL

Orbital parameters

Period: 100.593 minutes

Inclination: 98.6689 deg

SMA: 7164.819 km

Apoapsis: 812.313 km

Periapsis: 761.055 km

RAAN: 304.4223 deg

Eccentricy: 0.00357703

Argument of periapsis: 125.1085 deg

Mean anomaly: 235.346 deg

Mean motion: 14.31511824 rev/day

Mean motion (dot): 0.0001305 rev/day2

B* drag term: 0.0048839008 1/REarth

Two-line elements (TLE)

Creation date: Oct. 18, 2025, 2:17 a.m.

Reference frame: TEME

Reference center: EARTH

Epoch: Oct. 17, 2025, 11:46 p.m. UTC

TLE line 0: 0 NOAA 16 DEB

TLE line 1: 1 41197U 00055DA 25290.99040890 .00013050 00000-0 48839-2 0 9992

TLE line 2: 2 41197 98.6689 304.4223 0035770 125.1085 235.3460 14.31511824504688

Live tracking on map

Real-time ground track for satellite NOAA 16 DEB.

In-orbit conjunctions

A list of the most updated potential collisions computed for object NOAA 16 DEB.

Target Orbit TCA Probability of collision Miss distance Type
CZ-6A DEB LEO 2025-04-02 15:07:13 0.0002049858 253.0 (m) DEBRIS
METEOR 2-8 DEB LEO 2025-02-04 08:29:31 0.0001144348 153.0 (m) DEBRIS
COSMOS 1275 DEB LEO 2024-11-13 18:28:02 0.0002280237 870.0 (m) DEBRIS
COSMOS 1066 LEO 2024-10-21 14:15:07 0.0001323895 124.0 (m) PAYLOAD
NOAA 16 DEB SSO 2024-09-26 17:31:04 0.0002785907 314.0 (m) DEBRIS

Associated space launch

The NOAA K, L and M POES satellites begin the fifth generation of improved environmental monitoring in support of NOAA missions. The instrument payload has significant improvements and additions/deletions. The instrument changes have effected the spacecraft subsystems and data formats.

NOAA 16 DEB was lifted into orbit during the mission ‘Titan II SLV | NOAA 16’, on board a Titan II SLV space rocket.

The launch took place on Sept. 21, 2000, 10:22 a.m. from Space Launch Complex 4W.

For more information about the launch, click the button.

Launch to space Titan II SLV | NOAA 16
Titan II SLV | NOAA 16

Agency: N/A

Status: Launch Successful

Launch date: Sept. 21, 2000, 10:22 a.m. UTC

Rocket: Titan II SLV

Launch pad: Space Launch Complex 4W

Location: Vandenberg SFB, CA, USA

...

Latest news about this satellite

There are no fresh news available about this satellite. Check back as we update our databases every day.


Newsletter sign-up

Weekly statistics, charts and insights to help you stay on top of the space industry.